Tracking 21094 objects as of 12-Aug-2020
HD Live streaming from Space Station
objects crossing your sky now
Track the most recent launched group of Starlink satellites

ARIANE 2 DEB

Track ARIANE 2 DEB now!


NORAD ID: 33579
Int'l Code: 1989-006BX
Perigee: 840.2 km
Apogee: 35,667.1 km
Inclination: 11.2 °
Period: 640.9 minutes
Semi major axis: 24624 km
RCS: 0.196 m2 (medium)
Launch date: January 27, 1989
Source: France (FR)
Launch site: FRENCH GUIANA (FRGUI)

Note: This is SATELLITE DEBRIS
aabbcc
Your satellite tracking list
Your tracking list is empty




NASA's NSSDC Master Catalog

Two Line Element Set (TLE):
1 33579U 89006BX  20224.96842498 -.00001761  00000-0 -81886-1 0  9999
2 33579  11.1845 108.6561 7071540   6.5556 173.0628  2.24671149147091
Source of the keplerian elements: AFSPC